TimeCST,TemperatureF,Dew PointF,Humidity,Sea Level PressureIn,VisibilityMPH,Wind Direction,Wind SpeedMPH,Gust SpeedMPH,PrecipitationIn,Events,Conditions,WindDirDegrees,DateUTC
12:56 AM,32.0,28.9,88,30.42,10.0,Calm,Calm,-,N/A,,Clear,0,2013-01-05 06:56:00
1:56 AM,30.9,28.0,89,30.41,10.0,North,4.6,-,N/A,,Clear,350,2013-01-05 07:56:00
2:56 AM,30.0,28.0,92,30.42,10.0,Calm,Calm,-,N/A,,Clear,0,2013-01-05 08:56:00
3:56 AM,30.0,28.0,92,30.41,10.0,Calm,Calm,-,N/A,,Clear,0,2013-01-05 09:56:00
4:56 AM,30.0,28.0,92,30.40,10.0,East,3.5,-,N/A,,Clear,100,2013-01-05 10:56:00
5:56 AM,30.0,28.0,92,30.40,10.0,Calm,Calm,-,N/A,,Clear,0,2013-01-05 11:56:00
6:56 AM,33.1,30.0,89,30.43,10.0,Calm,Calm,-,N/A,,Overcast,0,2013-01-05 12:56:00
7:56 AM,35.1,30.9,85,30.46,10.0,NW,3.5,-,N/A,,Overcast,320,2013-01-05 13:56:00
8:56 AM,37.9,32.0,79,30.46,10.0,Calm,Calm,-,N/A,,Overcast,0,2013-01-05 14:56:00
9:56 AM,41.0,30.9,67,30.46,10.0,Calm,Calm,-,N/A,,Overcast,0,2013-01-05 15:56:00
10:56 AM,44.1,28.9,55,30.44,10.0,SE,3.5,-,N/A,,Overcast,140,2013-01-05 16:56:00
11:56 AM,46.0,30.9,56,30.40,10.0,Calm,Calm,-,N/A,,Overcast,0,2013-01-05 17:56:00
12:56 PM,46.9,30.0,52,30.37,10.0,Calm,Calm,-,N/A,,Overcast,0,2013-01-05 18:56:00
1:56 PM,46.0,34.0,63,30.36,10.0,Calm,Calm,-,0.00,Rain,Light Rain,0,2013-01-05 19:56:00
2:56 PM,43.0,39.0,86,30.37,4.0,Calm,Calm,-,0.05,Rain,Light Rain,0,2013-01-05 20:56:00
3:56 PM,43.0,39.9,89,30.39,10.0,Calm,Calm,-,0.04,,Overcast,0,2013-01-05 21:56:00
4:56 PM,43.0,41.0,93,30.37,8.0,Calm,Calm,-,0.00,Rain,Light Rain,0,2013-01-05 22:56:00
5:56 PM,42.1,39.9,92,30.37,10.0,NE,3.5,-,0.02,Rain,Light Rain,50,2013-01-05 23:56:00
6:11 PM,42.8,39.2,87,30.33,7.0,Calm,Calm,-,0.01,Rain,Light Rain,0,2013-01-06 00:11:00
6:56 PM,42.1,39.0,89,30.37,10.0,Calm,Calm,-,0.01,,Overcast,0,2013-01-06 00:56:00
7:48 PM,41.0,39.2,93,30.32,6.0,Calm,Calm,-,N/A,,Overcast,0,2013-01-06 01:48:00
7:56 PM,41.0,39.9,96,30.37,6.0,Calm,Calm,-,N/A,,Overcast,0,2013-01-06 01:56:00
8:56 PM,42.1,39.9,92,30.36,8.0,Calm,Calm,-,0.01,Rain,Light Rain,0,2013-01-06 02:56:00
9:56 PM,42.1,39.0,89,30.35,10.0,North,3.5,-,0.00,,Overcast,10,2013-01-06 03:56:00
10:56 PM,42.1,37.9,85,30.33,10.0,Calm,Calm,-,N/A,,Overcast,0,2013-01-06 04:56:00
11:56 PM,42.1,39.0,89,30.32,10.0,Calm,Calm,-,N/A,,Overcast,0,2013-01-06 05:56:00